Tracking 27380 objects as of 5-Jun-2023
HD Live streaming from Space Station
objects crossing your sky now

STARLINK-3873

Track STARLINK-3873 now!
10-day predictions
STARLINK-3873 is classified as:


NORAD ID: 52467
Int'l Code: 2022-049S
Perigee: 546.3 km
Apogee: 547.5 km
Inclination: 53.2 °
Period: 95.4 minutes
Semi major axis: 6917 km
RCS: Unknown
Launch date: May 6, 2022
Source: United States (US)
Launch site: AIR FORCE EASTERN TEST RANGE (AFETR)
Your satellite tracking list
Your tracking list is empty




NASA's NSSDC Master Catalog

Two Line Element Set (TLE):
1 52467U 22049S   23156.55735636  .00003780  00000-0  25548-3 0  9993
2 52467  53.2169 264.8026 0000840  80.8002 279.3085 15.08838185 60052
Source of the keplerian elements: AFSPC